Temperature
16 16 15 15 15 14 15 16 16 17 17 18 18 19 18 17 16 15 14 14 15 15 14 13 13 12 12 11 11 10 10 10 9 9 8 8 7 7 6 6 6 5 5 4
14 14 14 14 15 15 15 16 16 16 16 18 18 18 17 16 16 15 14 15 15 15 14 14 13 13 12 11 11 10 10 9 9 8 8 7 7 6 6 5 5 5 4 4
14 13 12 13 15 15 15 15 16 16 17 18 17 17 16 16 15 15 14 15 15 15 15 14 14 13 12 11 10 10 9 9 8 8 7 7 6 6 5 5 4 4 4 3
13 12 11 15 16 16 15 16 16 16 17 17 17 16 15 15 14 14 14 15 15 15 14 14 13 12 11 10 10 9 9 8 8 7 7 6 6 5 5 4 4 4 3 3
12 12 13 14 13 14 14 15 16 15 16 16 14 13 14 14 14 14 14 14 14 14 14 13 13 12 11 10 9 9 8 8 7 7 6 6 5 5 4 4 3 3 2 2
12 12 12 15 15 13 14 15 17 15 15 15 13 14 16 15 14 14 14 14 14 14 13 13 12 11 10 10 9 8 8 7 7 6 6 5 5 4 4 3 3 2 2 2
12 12 14 15 12 13 14 16 16 15 14 14 13 15 14 14 14 14 14 13 13 13 12 12 11 11 10 9 8 8 7 6 6 5 5 5 4 4 3 3 2 2 1 1
12 12 13 12 11 14 16 15 14 14 13 13 13 13 13 13 13 13 13 13 12 12 12 11 10 10 9 8 7 7 6 6 5 5 4 4 3 3 2 2 1 1 1 0
14 14 15 12 13 15 15 14 14 14 14 14 13 13 13 13 13 12 12 12 12 11 11 10 9 9 8 7 7 6 6 5 5 4 4 3 3 2 2 1 1 0 -0 -1
12 13 13 12 12 13 14 14 15 15 15 14 14 14 13 13 12 12 12 11 11 10 10 9 8 8 7 6 6 5 5 4 4 4 3 3 2 2 1 1 -0 -1 -1 -2
13 12 11 11 12 13 14 14 14 14 14 14 14 13 13 13 12 12 11 10 10 9 9 8 7 7 6 5 5 4 4 4 3 3 2 2 1 1 0 -0 -1 -1 -2 -2
14 13 13 14 14 14 13 14 14 14 13 13 13 13 13 12 12 11 10 10 9 8 8 7 6 6 5 5 4 4 3 3 3 2 2 1 1 0 -0 -1 -1 -2 -2 -3
14 13 13 14 14 14 14 14 14 13 13 13 13 12 12 11 11 10 9 9 8 8 7 6 5 5 4 4 3 3 3 2 2 1 1 0 -0 -1 -1 -2 -2 -2 -3 -3
12 12 11 12 13 13 13 13 13 13 12 12 12 11 11 11 10 9 8 8 7 6 6 5 4 4 3 3 3 2 2 1 1 0 -0 -1 -1 -2 -2 -3 -3 -4 -4 -4
11 11 12 12 12 12 12 12 12 11 11 11 11 10 10 10 9 8 7 7 6 5 5 4 3 3 3 2 2 1 1 0 -0 -1 -1 -2 -2 -3 -3 -4 -4 -5 -5 -5
10 10 10 11 11 11 11 11 11 11 11 10 10 9 9 8 8 7 6 6 5 4 4 3 3 2 2 1 1 0 -0 -1 -1 -2 -2 -3 -3 -4 -4 -5 -5 -6 -6 -7
8 8 8 9 10 10 10 11 10 10 10 9 9 8 7 7 6 6 5 4 4 3 3 2 2 1 1 1 -0 -0 -1 -1 -2 -2 -3 -3 -4 -5 -5 -6 -6 -7 -7 -7
10 11 11 11 11 10 10 9 9 9 9 8 7 7 6 6 5 5 4 3 3 2 2 1 1 1 0 -0 -1 -1 -2 -2 -3 -3 -4 -4 -5 -6 -6 -7 -7 -8 -8 -8
9 9 9 9 10 10 9 9 8 8 7 7 6 6 5 4 4 3 3 2 2 1 1 0 0 -0 -1 -1 -2 -2 -3 -3 -4 -4 -5 -5 -6 -7 -7 -8 -8 -8 -9 -9
8 8 8 8 8 8 8 7 7 6 6 5 5 4 4 3 3 2 2 1 1 1 0 -0 -1 -1 -2 -2 -3 -3 -4 -4 -5 -5 -6 -6 -7 -8 -8 -8 -9 -9 -9 -10
7 7 7 7 7 7 6 6 6 5 4 4 4 3 3 2 2 1 1 0 -0 -0 -1 -1 -2 -2 -2 -3 -3 -4 -4 -5 -6 -6 -7 -7 -8 -8 -9 -9 -9 -10 -10 -10
5 6 6 6 6 5 5 4 4 4 3 2 2 2 2 1 0 -0 -0 -1 -1 -1 -2 -2 -2 -3 -3 -4 -4 -5 -5 -6 -6 -7 -8 -8 -9 -9 -9 -10 -10 -10 -11 -11
4 4 4 4 4 4 3 2 2 2 2 1 1 1 0 -0 -1 -1 -1 -1 -2 -2 -2 -3 -3 -4 -4 -5 -5 -6 -6 -7 -7 -8 -8 -9 -9 -10 -10 -10 -11 -11 -11 -11
2 2 2 2 2 2 1 1 1 1 0 0 -0 -0 -1 -1 -1 -2 -2 -2 -3 -3 -3 -4 -4 -4 -5 -5 -6 -6 -7 -7 -8 -9 -9 -9 -10 -10 -11 -11 -11 -11 -11 -12
1 1 0 0 0 0 -0 -0 -1 -1 -1 -1 -1 -2 -2 -2 -2 -2 -3 -3 -3 -4 -4 -4 -5 -5 -6 -6 -7 -7 -8 -8 -9 -9 -10 -10 -10 -11 -11 -11 -11 -11 -12 -12
-1 -1 -1 -1 -0 -1 -1 -1 -1 -2 -2 -2 -2 -2 -2 -3 -3 -3 -4 -4 -4 -5 -5 -5 -6 -6 -7 -7 -8 -8 -8 -9 -9 -9 -9 -10 -10 -11 -11 -11 -11 -12 -12 -12
-2 -2 -2 -2 -2 -2 -2 -2 -2 -2 -2 -2 -3 -3 -3 -4 -4 -4 -5 -5 -5 -6 -6 -6 -7 -7 -7 -8 -8 -8 -9 -9 -9 -10 -10 -10 -11 -11 -11 -11 -11 -12 -12 -12
Wind_Speed
15 9 14 16 21 24 26 26 21 21 22 21 20 18 16 13 11 9 8 8 10 12 12 14 15 16 16 16 16 16 16 15 15 13 12 11 10 10 9 9 8 8 8 8
14 12 13 13 18 23 26 25 27 24 23 20 19 17 16 15 13 12 11 9 10 11 12 14 15 15 16 16 16 16 16 15 13 12 12 11 10 10 9 8 8 8 8 9
14 12 9 16 22 22 21 22 21 24 25 19 17 16 16 14 12 12 11 9 9 10 12 12 14 15 15 15 15 15 15 14 13 13 12 11 10 9 9 9 8 8 9 9
8 11 13 12 10 19 22 22 22 20 19 18 18 15 12 12 12 11 9 8 8 8 9 9 10 12 12 13 14 14 14 13 13 12 11 10 10 9 9 8 8 8 9 10
8 11 11 7 7 12 17 18 21 23 22 17 9 7 10 10 10 9 7 5 5 6 7 8 10 11 12 12 13 13 13 13 12 12 11 10 10 9 7 7 8 8 9 10
9 10 12 10 9 10 10 11 13 18 20 15 9 8 9 4 5 5 4 3 4 6 7 8 9 11 12 12 12 12 12 11 11 10 10 9 8 7 6 7 8 8 9 10
13 12 11 5 8 14 11 8 5 12 15 13 13 10 3 5 5 5 5 5 6 7 7 8 10 11 11 11 11 10 9 9 9 9 8 7 6 6 6 6 7 8 10 11
14 13 11 9 13 14 8 3 4 7 9 11 11 6 5 5 6 6 6 7 7 7 7 8 9 10 10 9 8 9 9 8 8 7 6 5 5 5 6 7 8 9 10 11
13 13 4 15 12 10 4 6 6 6 7 9 9 8 8 7 7 7 7 7 7 8 9 8 8 9 9 9 9 9 9 8 7 6 5 5 5 6 6 6 7 8 8 10
8 9 8 12 10 7 7 7 6 6 7 10 9 9 9 8 8 8 8 8 8 9 9 8 8 7 8 9 9 9 8 6 5 5 4 4 4 5 6 7 7 8 9 10
11 6 6 9 14 12 10 7 6 6 7 9 9 9 10 9 9 9 8 8 8 9 9 9 8 8 8 8 8 7 6 5 4 4 4 5 6 6 8 8 8 9 9 10
12 11 10 11 13 12 11 11 11 9 7 8 9 10 10 9 9 9 9 9 9 9 9 9 9 8 8 7 7 6 5 4 3 3 4 5 6 7 9 12 14 16 17 17
8 7 8 4 6 10 11 11 10 10 10 9 8 9 10 8 9 9 9 10 10 10 9 9 9 8 7 6 6 5 4 3 3 4 4 5 6 7 9 9 12 16 18 20
5 6 5 6 6 8 8 7 7 7 6 7 8 9 9 8 9 10 10 9 9 9 9 9 8 7 6 5 5 4 3 4 4 4 5 6 7 8 8 10 11 10 12 16
10 8 6 5 6 7 7 8 8 8 7 7 8 9 10 11 10 9 9 9 9 9 8 8 7 6 5 5 4 4 4 3 4 5 6 7 7 8 9 11 11 12 11 12
10 7 6 7 9 9 9 10 10 10 9 9 9 9 9 9 9 9 9 10 10 9 8 7 6 5 5 4 4 3 4 5 6 6 6 7 8 9 9 10 11 12 12 12
11 11 11 10 11 11 11 10 10 10 10 10 10 10 11 11 10 9 8 7 6 6 6 6 5 4 4 4 4 3 4 5 7 7 7 8 9 9 10 11 12 12 13 14
13 14 13 12 12 12 10 9 9 10 10 10 12 12 12 11 10 9 8 7 6 5 4 4 3 3 3 3 3 4 5 5 6 7 8 9 10 10 11 12 13 15 14 14
9 9 10 9 10 10 11 10 10 10 11 12 12 11 10 9 9 9 8 7 6 5 3 3 3 3 3 4 4 5 6 7 8 8 9 12 12 11 12 13 13 14 14 14
8 8 9 9 9 9 10 11 11 11 11 12 12 12 10 9 9 8 7 5 3 2 3 3 2 2 3 4 6 6 7 8 9 10 10 11 12 12 13 13 14 14 14 14
10 10 11 11 11 11 11 13 13 13 12 12 12 11 10 9 8 7 6 4 2 3 2 2 2 3 4 5 7 7 8 9 10 11 11 12 12 13 13 14 14 14 14 14
11 12 13 14 14 13 11 11 13 14 13 11 11 11 10 9 7 5 3 2 2 1 1 2 3 4 6 8 7 8 9 10 10 11 11 12 13 13 14 15 15 14 14 15
12 13 14 15 15 15 13 12 12 12 12 11 11 10 9 7 5 4 2 2 1 1 2 3 5 8 11 8 7 8 10 11 11 11 12 13 13 14 14 15 15 15 15 15
14 15 15 15 16 17 15 12 11 11 11 10 8 8 7 5 3 2 2 1 1 3 3 5 8 10 11 7 8 9 10 11 11 12 13 13 13 14 14 15 15 15 15 17
16 16 16 16 15 13 13 13 13 12 10 8 8 6 5 3 2 1 1 1 3 5 4 6 9 11 9 8 9 10 10 11 12 13 13 13 14 14 14 14 14 15 15 15
15 13 12 12 11 11 10 9 9 7 7 7 5 4 4 3 2 1 1 2 4 6 6 6 7 9 8 9 10 11 11 12 13 13 13 14 15 15 15 15 18 16 15 15
15 13 12 11 10 9 8 8 8 7 5 5 4 3 2 2 1 2 3 3 4 5 6 6 7 8 9 9 10 11 11 12 12 13 13 13 14 14 15 17 15 15 15 15
Wind_Direction
225 205 185 200 206 208 217 227 238 247 248 252 256 261 268 274 278 273 257 230 215 210 206 202 200 200 199 197 193 188 187 189 191 188 185 185 186 190 193 199 208 216 225 235
211 201 198 210 213 213 220 230 239 250 256 257 261 265 265 265 264 261 254 239 223 214 209 205 202 200 198 196 192 188 190 191 187 183 182 186 189 191 196 204 213 220 230 241
209 196 202 233 224 219 223 228 234 243 250 255 257 254 255 258 257 254 253 242 224 216 211 207 202 198 196 193 187 188 190 188 184 183 185 188 189 194 202 211 219 229 239 247
185 177 219 237 215 219 227 234 232 240 250 252 253 259 261 256 254 251 247 238 223 212 205 199 193 191 188 183 182 185 187 186 183 184 187 188 193 202 210 218 227 237 247 254
186 207 234 238 209 201 212 236 233 234 243 247 248 261 259 245 235 239 240 230 211 193 184 177 176 175 173 174 177 183 186 185 183 184 185 189 198 208 215 224 235 245 253 259
190 208 226 224 189 179 190 242 235 224 233 234 202 234 250 206 195 201 195 173 159 153 155 159 164 164 166 170 176 184 184 181 179 182 186 193 203 212 222 231 243 252 257 262
203 217 235 205 150 154 193 233 204 207 218 211 204 224 198 143 151 153 146 142 143 145 148 153 157 159 163 169 179 177 170 169 172 179 187 195 204 215 226 238 250 258 264 267
206 216 224 164 158 186 211 156 174 191 200 200 203 196 168 164 160 156 147 145 146 142 139 145 155 159 161 167 163 157 157 161 168 176 179 190 206 222 235 245 257 264 270 274
202 214 190 169 189 202 180 182 188 186 185 182 184 189 182 179 173 166 158 152 151 145 138 143 155 161 158 154 151 152 155 161 167 174 184 198 217 233 244 250 257 266 271 276
200 214 199 196 207 209 204 203 194 186 175 175 182 182 179 176 173 168 163 159 154 150 147 149 154 157 151 147 151 154 159 164 171 185 201 215 228 237 245 251 258 266 272 278
212 209 203 218 217 216 210 207 197 189 189 189 181 182 182 179 177 171 163 161 161 159 155 152 151 149 148 151 154 158 163 172 185 203 222 237 244 246 251 254 257 263 271 275
212 199 194 207 208 204 201 205 201 191 189 192 191 186 179 178 173 167 163 160 160 160 155 153 153 150 151 155 160 163 174 189 206 224 239 251 261 267 248 252 264 263 266 271
210 187 196 187 184 189 201 206 198 194 191 186 186 181 173 167 164 161 161 164 165 162 157 155 155 155 156 160 166 177 193 209 226 240 252 260 266 273 281 273 262 265 268 271
189 162 182 196 197 190 187 179 171 173 179 174 167 163 159 154 156 162 167 166 159 154 154 156 158 161 160 164 173 191 210 224 238 250 258 264 267 271 276 283 287 283 275 274
210 209 200 175 162 155 152 150 154 162 160 157 158 159 160 160 163 161 154 149 147 149 154 158 163 166 165 173 187 207 225 238 248 260 263 267 270 273 275 278 280 285 287 283
201 197 187 182 179 171 166 170 174 174 168 161 159 160 157 149 142 138 143 150 154 160 163 167 172 168 169 181 199 222 238 244 256 266 268 270 271 273 275 277 279 282 283 286
182 195 195 196 195 190 187 186 182 171 163 160 156 146 138 135 134 137 143 150 150 152 161 169 169 162 177 196 217 238 251 256 259 266 267 270 272 273 275 277 278 280 282 284
206 204 197 193 191 188 183 175 167 159 155 150 142 141 144 148 149 147 143 139 135 137 153 161 159 171 195 216 237 252 258 264 266 269 272 272 274 274 276 276 278 281 283 285
198 191 188 184 178 173 167 161 155 147 141 142 142 143 142 140 138 138 141 145 150 155 158 154 168 197 225 244 259 262 264 269 272 273 274 276 278 276 276 277 279 280 283 285
176 164 157 149 142 146 147 143 139 136 138 138 134 131 131 132 134 137 142 145 154 151 151 170 201 232 253 261 268 269 270 273 276 278 278 278 279 279 279 280 281 282 283 284
154 145 139 134 128 127 133 136 134 132 133 135 135 134 132 131 134 137 140 139 131 133 160 208 246 264 272 277 278 276 276 278 279 280 281 281 282 282 282 283 283 283 283 283
139 136 132 128 123 118 118 122 124 124 124 122 121 124 126 128 130 126 122 140 144 159 252 260 269 279 288 291 284 281 280 281 282 282 282 282 283 283 284 284 284 284 283 283
126 126 125 123 120 115 109 109 114 118 120 122 125 127 126 127 130 132 124 124 147 284 289 278 288 295 300 297 288 285 285 284 284 283 283 283 283 283 284 284 284 284 285 284
116 115 115 116 114 111 108 105 103 104 105 105 107 112 116 114 98 86 102 112 312 307 296 293 300 303 305 297 290 287 286 286 285 285 285 284 284 284 284 285 285 285 284 284
112 113 114 115 111 110 112 110 105 103 101 99 96 90 84 84 100 94 42 323 314 311 301 301 304 306 303 293 290 288 287 285 285 287 286 287 287 287 286 285 285 285 284 283
109 108 106 104 108 113 116 114 110 109 108 103 93 84 76 71 71 50 343 315 308 307 305 302 302 302 296 293 291 289 288 290 290 288 286 287 286 286 285 285 285 284 284 282
103 102 101 97 94 99 104 105 106 105 104 106 100 85 68 50 25 351 326 315 312 308 304 301 300 297 295 293 292 291 290 289 288 287 287 287 286 285 285 285 285 285 285 284
Height
1425 1430 1434 1438 1442 1447 1447 1443 1444 1439 1441 1439 1439 1440 1441 1442 1443 1443 1443 1443 1443 1444 1446 1448 1451 1454 1458 1461 1465 1469 1473 1477 1480 1484 1487 1489 1491 1493 1494 1495 1495 1494 1494 1493
1430 1432 1434 1435 1435 1437 1439 1438 1437 1436 1434 1432 1434 1436 1437 1438 1438 1438 1438 1438 1439 1440 1441 1443 1445 1448 1451 1455 1459 1463 1467 1471 1475 1479 1481 1484 1486 1488 1488 1489 1489 1489 1488 1486
1426 1432 1437 1433 1426 1428 1430 1429 1430 1431 1427 1427 1429 1431 1432 1432 1433 1432 1432 1433 1434 1435 1436 1438 1440 1443 1446 1449 1453 1457 1461 1466 1470 1473 1476 1479 1481 1482 1483 1483 1483 1482 1481 1480
1422 1433 1437 1415 1413 1416 1420 1420 1422 1422 1420 1421 1423 1425 1426 1427 1427 1427 1427 1428 1429 1431 1432 1434 1436 1439 1442 1445 1448 1452 1456 1460 1464 1467 1471 1473 1475 1476 1477 1477 1477 1476 1475 1473
1421 1421 1415 1413 1413 1413 1416 1414 1412 1414 1415 1417 1420 1422 1420 1420 1421 1422 1423 1424 1426 1427 1428 1430 1432 1435 1438 1441 1444 1447 1451 1454 1458 1462 1465 1467 1469 1470 1471 1471 1470 1469 1468 1466
1415 1416 1413 1401 1402 1406 1412 1410 1403 1406 1408 1411 1417 1418 1414 1415 1416 1418 1419 1421 1423 1424 1426 1428 1430 1432 1435 1438 1440 1443 1447 1451 1454 1457 1460 1462 1464 1465 1465 1465 1464 1463 1461 1459
1405 1406 1396 1394 1400 1405 1410 1400 1396 1398 1401 1405 1410 1409 1411 1412 1413 1415 1417 1419 1420 1422 1424 1426 1428 1430 1433 1435 1438 1441 1444 1448 1450 1453 1456 1457 1459 1459 1459 1458 1457 1456 1454 1451
1397 1399 1397 1393 1398 1396 1391 1391 1393 1394 1396 1400 1403 1405 1407 1409 1411 1413 1415 1417 1419 1420 1422 1424 1426 1429 1431 1433 1436 1439 1442 1444 1447 1449 1451 1453 1453 1453 1453 1452 1450 1448 1446 1443
1380 1380 1379 1383 1384 1385 1387 1389 1390 1392 1394 1396 1399 1402 1404 1407 1409 1411 1413 1415 1417 1419 1421 1423 1425 1427 1429 1432 1434 1437 1439 1442 1444 1446 1447 1447 1448 1447 1447 1445 1443 1441 1438 1435
1376 1376 1377 1379 1380 1381 1384 1385 1387 1390 1392 1394 1396 1399 1401 1404 1407 1409 1411 1413 1415 1417 1419 1421 1423 1425 1428 1430 1432 1434 1437 1439 1440 1441 1442 1442 1442 1441 1440 1438 1436 1433 1431 1427
1368 1371 1374 1374 1375 1377 1380 1382 1385 1387 1389 1391 1394 1396 1399 1401 1404 1406 1409 1411 1413 1415 1417 1419 1421 1423 1426 1428 1430 1432 1434 1435 1436 1437 1437 1436 1436 1435 1433 1431 1429 1427 1423 1420
1359 1363 1365 1367 1369 1373 1375 1378 1381 1384 1386 1388 1391 1393 1396 1398 1401 1403 1406 1408 1410 1413 1415 1417 1419 1421 1423 1425 1427 1429 1430 1431 1432 1432 1431 1430 1429 1427 1425 1424 1421 1419 1416 1413
1354 1357 1360 1362 1365 1368 1371 1374 1377 1380 1382 1385 1387 1390 1392 1395 1398 1400 1403 1405 1408 1410 1412 1415 1417 1419 1421 1423 1424 1426 1427 1427 1427 1426 1425 1424 1422 1420 1417 1415 1413 1410 1407 1404
1350 1353 1356 1358 1361 1364 1367 1370 1373 1376 1379 1381 1384 1386 1389 1392 1394 1397 1400 1403 1405 1408 1410 1412 1414 1416 1418 1420 1421 1422 1422 1422 1422 1421 1419 1417 1415 1413 1410 1406 1403 1400 1398 1394
1347 1350 1352 1355 1358 1360 1363 1366 1369 1371 1374 1377 1380 1383 1386 1388 1391 1394 1397 1400 1403 1405 1408 1410 1412 1414 1415 1416 1417 1417 1417 1417 1416 1414 1413 1411 1408 1405 1402 1399 1395 1391 1388 1385
1342 1345 1348 1351 1353 1356 1359 1362 1364 1367 1370 1373 1377 1380 1383 1386 1389 1392 1395 1397 1400 1402 1405 1407 1409 1410 1411 1412 1412 1412 1412 1411 1410 1408 1406 1404 1401 1398 1395 1391 1387 1383 1379 1376
1337 1340 1343 1346 1348 1351 1354 1357 1360 1364 1367 1370 1374 1377 1380 1383 1386 1389 1392 1395 1398 1400 1402 1404 1406 1407 1407 1408 1407 1407 1406 1405 1403 1401 1399 1396 1393 1390 1386 1383 1379 1375 1371 1368
1330 1333 1337 1340 1343 1346 1350 1354 1357 1361 1364 1368 1372 1375 1378 1381 1384 1387 1390 1393 1395 1398 1399 1401 1402 1403 1403 1403 1402 1401 1400 1398 1396 1394 1391 1388 1385 1382 1378 1374 1370 1366 1362 1359
1325 1329 1333 1336 1340 1343 1346 1350 1354 1358 1362 1366 1369 1373 1376 1380 1383 1386 1388 1391 1393 1394 1396 1397 1398 1399 1399 1398 1397 1395 1393 1391 1389 1386 1383 1380 1376 1373 1369 1365 1361 1357 1354 1350
1321 1325 1329 1332 1336 1340 1344 1348 1352 1356 1360 1364 1368 1371 1375 1378 1381 1384 1386 1388 1390 1392 1393 1394 1394 1394 1393 1392 1391 1389 1386 1384 1381 1378 1375 1371 1368 1364 1360 1356 1352 1348 1344 1341
1317 1321 1325 1329 1333 1337 1342 1346 1350 1354 1359 1363 1367 1370 1374 1377 1380 1382 1384 1386 1388 1389 1389 1390 1389 1389 1388 1386 1384 1382 1379 1376 1373 1370 1366 1362 1359 1355 1351 1347 1343 1339 1335 1331
1314 1318 1322 1327 1331 1336 1341 1345 1350 1354 1358 1362 1366 1369 1373 1375 1378 1380 1382 1384 1385 1385 1385 1385 1384 1383 1382 1379 1377 1374 1371 1368 1365 1361 1357 1354 1350 1345 1341 1337 1333 1329 1325 1321
1312 1317 1321 1326 1331 1335 1341 1346 1350 1355 1358 1362 1366 1369 1372 1374 1377 1379 1380 1381 1381 1381 1381 1380 1379 1377 1375 1372 1370 1367 1363 1360 1356 1352 1348 1344 1340 1336 1331 1327 1323 1319 1315 1311
1313 1318 1323 1328 1332 1337 1342 1347 1352 1356 1360 1363 1367 1369 1372 1374 1375 1377 1378 1378 1378 1377 1376 1374 1373 1370 1368 1365 1362 1358 1355 1351 1347 1343 1339 1335 1331 1326 1322 1318 1313 1309 1305 1301
1316 1321 1326 1330 1335 1340 1344 1349 1354 1358 1361 1364 1367 1370 1372 1373 1374 1374 1374 1374 1373 1372 1370 1368 1366 1363 1360 1357 1354 1350 1347 1343 1339 1334 1330 1326 1321 1317 1312 1308 1303 1299 1295 1291
1321 1326 1330 1335 1339 1344 1348 1352 1355 1359 1362 1365 1367 1369 1370 1371 1371 1371 1371 1370 1368 1366 1364 1362 1359 1356 1353 1350 1346 1342 1338 1334 1330 1325 1321 1316 1312 1307 1302 1298 1293 1289 1285 1280
1327 1331 1335 1340 1344 1348 1352 1355 1358 1361 1363 1365 1366 1367 1368 1368 1368 1367 1366 1365 1363 1360 1358 1355 1352 1349 1345 1342 1338 1334 1330 1326 1321 1316 1312 1307 1302 1298 1293 1288 1284 1279 1275 1270